{"data":{"norad_id":57774,"intl_designator":"2023-134D","name":"STARLINK-30384","alt_names":[],"object_type":"PAYLOAD","status":"ACTIVE","operator":null,"country":"US","launch_date":"2023-09-04","launch_site_code":"AFETR","launch_vehicle":null,"mission":null,"orbit_class":"UNKNOWN","rcs_meters":null,"size_class":null,"mass_kg":null,"dimensions":null,"purposes":["comms"],"wikipedia_slug":null,"has_3d_model":false,"image_url":null,"decayed_at":null,"tle_current":{"epoch":"2026-05-25T05:09:52.791840Z","epoch_age_seconds":59487,"freshness":"FRESH","line1":"1 57774U 23134D   26145.21519435 -.00000120  00000+0  51830-5 0  9996","line2":"2 57774  43.0049 125.4431 0001674 280.0208  80.0455 15.27588697151175","mean_motion":15.27588697,"eccentricity":0.0001674,"inclination_deg":43.0049,"raan_deg":125.4431,"arg_perigee_deg":280.0208,"mean_anomaly_deg":80.0455,"bstar":5.183e-6,"rev_number":15117,"period_min":94.26621202605,"perigee_km":481.8744960234,"apogee_km":484.17161240955,"semimajor_km":6861.1600542165,"source":"CELESTRAK","updated_at":"2026-05-25T13:38:18.404240Z"}}}